STARLINK-4371, 53232

Orbit data source: Space-Track

STARLINK-4371, 53232 is a payload satellite owned by SpaceX/Seattle (US) in SSO that was launched on Fri, 22 Jul 2022 UTC via an FALCON 9 launch vehicle from the Air Force Western Test Range (AFWTR). Payload-class satellites include a variety of spacecraft equipped with specific instruments for various scientific and technological missions. These include communications satellites like Starlink; space stations such as the ISS; scientific satellites like the Hubble; Earth observation satellites from companies like Planet Labs, Umbra, and HawkEye 360; GPS; miniature CubeSats for education and research; and military/defense satellites.

Loading next visibility...
Identifier
53232, 2022-084AV
Orbit
SSO
Country
Flag of USUS
Related business
Manufacturer
SpaceX/Seattle
Mission
Operational Commercial Communications
Bus & Motor
STARLINK, Unknown motor
Mass
297 kg wet, ~275 kg dry
Launch date (UTC)
2022-07-22 (4 years ago)
Launch vehicle
FALCON 9
Launch site
Air Force Western Test Range (AFWTR)
Object type
Payload
Rocket body
Debris
Shape & HBR
Box + 1 Pan, 10.1 m
Radar Cross Section
13.562 m², Large (>1 m²)

Expand to show TLE details & history
Last TLE update: 3 days ago

TLE from 3 days ago
0 STARLINK-4371
1 53232U 22084AV  26170.72735566  .00000351  00000-0  28242-4 0  9999
2 53232  97.3386 229.5766 0001786 144.3677 215.7670 15.05654510214663
Epoch: 2026-06-19T17:27Z
TLE epoch observation values (Epoch: 2026-06-19T17:27:23.529Z)
Latitude
Longitude
59.77638°
Altitude
553.574 km
Speed
7.584 km/s
True Right ascension
15h 18m 18s
True Declination
0° 00' 00"
Sunlit
Object was in full shadow at epoch
Visualization orbit readout
Latitude
Unknown
Longitude
Unknown
Altitude
Unknown
Speed
Unknown
Apparent Right ascension
Unknown
Apparent Declination
Unknown
Sunlit
N/A
Visualization observer readout
Local Sidereal Time
21:23:46
Azimuth
Unknown
Elevation
Unknown
Doppler factor
Unknown
Orbital elements
Apogee altitude
547.716 km
Perigee altitude
545.243 km
Semi-major axis
6,924.616 km
Eccentricity
0.00018
Inclination
97.3386°
RAAN
229.5766°
Arg. of periapsis
144.3677°
True anomaly
215.75504°
Mean anomaly
215.767°
Eccentric anomaly
215.76102°
Mean motion
3.7666 °/min
Orbital period
95.58 mins
BSTAR
0.000028242
Loading maneuver chart data...
Computing Atmospheric mass density...
Loading historical data...
Loading historical data...
Loading historical data...
Loading historical data...
Loading historical data...
Loading historical data...
Loading historical data...

Documentation

Showing up to 5 results
|